Time,TemperatureF,DewpointF,PressureIn,WindDirection,WindDirectionDegrees,WindSpeedMPH,WindSpeedGustMPH,Humidity,HourlyPrecipIn,Conditions,Clouds,dailyrainin,SoftwareType,DateUTC
2013-09-15 00:00:00,52.2,50.8,30.05,North,360,0.0,6.0,95,0.00,,,0.00,VWS V14.01,2013-09-15 04:00:00,
2013-09-15 00:01:00,52.2,50.8,30.05,North,360,0.0,6.0,95,0.00,,,0.00,VWS V14.01,2013-09-15 04:01:00,
2013-09-15 00:02:00,52.2,50.8,30.05,North,360,0.0,6.0,95,0.00,,,0.00,VWS V14.01,2013-09-15 04:02:00,
2013-09-15 00:03:00,52.2,50.8,30.05,North,360,0.0,6.0,95,0.00,,,0.00,VWS V14.01,2013-09-15 04:03:00,
2013-09-15 00:04:00,52.2,50.8,30.05,North,360,0.0,6.0,95,0.00,,,0.00,VWS V14.01,2013-09-15 04:04:00,
2013-09-15 00:05:00,52.0,50.6,30.05,North,360,0.0,6.0,95,0.00,,,0.00,VWS V14.01,2013-09-15 04:05:00,
2013-09-15 00:08:00,52.2,50.8,30.05,North,360,0.0,6.0,95,0.00,,,0.00,VWS V14.01,2013-09-15 04:08:00,
2013-09-15 00:10:00,52.0,50.6,30.05,North,360,0.0,6.0,95,0.00,,,0.00,VWS V14.01,2013-09-15 04:10:00,
2013-09-15 00:13:00,52.0,50.6,30.05,North,360,0.0,6.0,95,0.00,,,0.00,VWS V14.01,2013-09-15 04:13:00,
2013-09-15 00:15:00,51.9,50.5,30.04,North,360,0.0,6.0,95,0.00,,,0.00,VWS V14.01,2013-09-15 04:15:00,
2013-09-15 00:18:00,51.9,50.5,30.04,North,360,0.0,6.0,95,0.00,,,0.00,VWS V14.01,2013-09-15 04:18:00,
2013-09-15 00:20:00,51.9,50.5,30.04,North,360,0.0,6.0,95,0.00,,,0.00,VWS V14.01,2013-09-15 04:20:00,
2013-09-15 00:23:00,51.9,50.5,30.04,North,360,0.0,6.0,95,0.00,,,0.00,VWS V14.01,2013-09-15 04:23:00,
2013-09-15 00:25:00,51.9,50.5,30.04,North,360,0.0,6.0,95,0.00,,,0.00,VWS V14.01,2013-09-15 04:25:00,
2013-09-15 00:28:00,51.9,50.5,30.04,North,360,0.0,6.0,95,0.00,,,0.00,VWS V14.01,2013-09-15 04:28:00,
2013-09-15 00:30:00,51.9,50.5,30.05,North,360,0.0,6.0,95,0.00,,,0.00,VWS V14.01,2013-09-15 04:30:00,
2013-09-15 00:33:00,51.9,50.5,30.05,North,360,0.0,6.0,95,0.00,,,0.00,VWS V14.01,2013-09-15 04:33:00,
2013-09-15 00:35:00,51.9,50.5,30.05,North,360,0.0,6.0,95,0.00,,,0.00,VWS V14.01,2013-09-15 04:35:00,
2013-09-15 00:38:00,51.9,50.5,30.05,North,360,0.0,6.0,95,0.00,,,0.00,VWS V14.01,2013-09-15 04:38:00,
2013-09-15 00:40:00,51.7,50.3,30.05,North,360,0.0,6.0,95,0.00,,,0.00,VWS V14.01,2013-09-15 04:40:00,
2013-09-15 00:44:00,51.7,50.3,30.05,North,360,0.0,6.0,95,0.00,,,0.00,VWS V14.01,2013-09-15 04:44:00,
2013-09-15 00:45:00,51.7,50.3,30.05,North,360,0.0,6.0,95,0.00,,,0.00,VWS V14.01,2013-09-15 04:45:00,
2013-09-15 00:49:00,51.7,50.3,30.05,North,360,0.0,6.0,95,0.00,,,0.00,VWS V14.01,2013-09-15 04:49:00,
2013-09-15 00:50:00,51.6,50.2,30.05,North,360,0.0,6.0,95,0.00,,,0.00,VWS V14.01,2013-09-15 04:50:00,
2013-09-15 00:54:00,51.6,50.2,30.05,North,360,0.0,6.0,95,0.00,,,0.00,VWS V14.01,2013-09-15 04:54:00,
2013-09-15 00:55:00,51.7,50.6,30.05,North,360,0.0,6.0,96,0.00,,,0.00,VWS V14.01,2013-09-15 04:55:00,
2013-09-15 00:59:00,51.7,50.6,30.05,North,360,0.0,6.0,96,0.00,,,0.00,VWS V14.01,2013-09-15 04:59:00,
2013-09-15 01:00:00,51.7,50.6,30.05,North,360,0.0,6.0,96,0.00,,,0.00,VWS V14.01,2013-09-15 05:00:00,
2013-09-15 01:04:00,51.7,50.6,30.05,North,360,0.0,6.0,96,0.00,,,0.00,VWS V14.01,2013-09-15 05:04:00,
2013-09-15 01:05:00,51.7,50.6,30.05,North,360,0.0,6.0,96,0.00,,,0.00,VWS V14.01,2013-09-15 05:05:00,
2013-09-15 01:09:00,51.7,50.6,30.05,North,360,0.0,6.0,96,0.00,,,0.00,VWS V14.01,2013-09-15 05:09:00,
2013-09-15 01:10:00,51.6,50.5,30.05,North,360,0.0,6.0,96,0.00,,,0.00,VWS V14.01,2013-09-15 05:10:00,
2013-09-15 01:14:00,51.6,50.5,30.05,North,360,0.0,6.0,96,0.00,,,0.00,VWS V14.01,2013-09-15 05:14:00,
2013-09-15 01:15:00,51.4,50.3,30.03,North,360,0.0,6.0,96,0.00,,,0.00,VWS V14.01,2013-09-15 05:15:00,
2013-09-15 01:19:00,51.4,50.3,30.03,North,360,0.0,6.0,96,0.00,,,0.00,VWS V14.01,2013-09-15 05:19:00,
2013-09-15 01:20:00,51.4,50.3,30.03,North,360,0.0,6.0,96,0.00,,,0.00,VWS V14.01,2013-09-15 05:20:00,
2013-09-15 01:24:00,51.4,50.3,30.03,North,360,0.0,6.0,96,0.00,,,0.00,VWS V14.01,2013-09-15 05:24:00,
2013-09-15 01:25:00,51.6,50.5,30.03,North,360,0.0,6.0,96,0.00,,,0.00,VWS V14.01,2013-09-15 05:25:00,
2013-09-15 01:29:00,51.6,50.5,30.03,North,360,0.0,6.0,96,0.00,,,0.00,VWS V14.01,2013-09-15 05:29:00,
2013-09-15 01:30:00,51.7,50.6,30.04,North,360,0.0,6.0,96,0.00,,,0.00,VWS V14.01,2013-09-15 05:30:00,
2013-09-15 01:34:00,51.7,50.6,30.04,North,360,0.0,6.0,96,0.00,,,0.00,VWS V14.01,2013-09-15 05:34:00,
2013-09-15 01:35:00,51.7,50.6,30.04,North,360,0.0,6.0,96,0.00,,,0.00,VWS V14.01,2013-09-15 05:35:00,
2013-09-15 01:39:00,51.7,50.6,30.04,North,360,0.0,6.0,96,0.00,,,0.00,VWS V14.01,2013-09-15 05:39:00,
2013-09-15 01:40:00,51.7,50.6,30.04,North,360,0.0,6.0,96,0.00,,,0.00,VWS V14.01,2013-09-15 05:40:00,
2013-09-15 01:44:00,51.7,50.6,30.04,North,360,0.0,6.0,96,0.00,,,0.00,VWS V14.01,2013-09-15 05:44:00,
2013-09-15 01:45:00,51.7,50.6,30.04,North,360,0.0,6.0,96,0.00,,,0.00,VWS V14.01,2013-09-15 05:45:00,
2013-09-15 01:50:00,51.7,50.6,30.04,North,360,0.0,6.0,96,0.00,,,0.00,VWS V14.01,2013-09-15 05:50:00,
2013-09-15 01:55:00,51.7,50.6,30.04,North,360,0.0,6.0,96,0.00,,,0.00,VWS V14.01,2013-09-15 05:55:00,
2013-09-15 02:00:00,51.6,50.5,30.04,North,360,0.0,6.0,96,0.00,,,0.00,VWS V14.01,2013-09-15 06:00:00,
2013-09-15 02:05:00,51.6,50.5,30.03,North,360,0.0,6.0,96,0.00,,,0.00,VWS V14.01,2013-09-15 06:05:00,
2013-09-15 02:10:00,51.4,50.3,30.03,North,360,0.0,6.0,96,0.00,,,0.00,VWS V14.01,2013-09-15 06:10:00,
2013-09-15 02:15:00,51.4,50.3,30.03,North,360,0.0,6.0,96,0.00,,,0.00,VWS V14.01,2013-09-15 06:15:00,
2013-09-15 02:20:00,51.6,50.5,30.04,North,360,0.0,6.0,96,0.00,,,0.00,VWS V14.01,2013-09-15 06:20:00,
2013-09-15 02:25:00,51.6,50.5,30.04,North,360,0.0,6.0,96,0.00,,,0.00,VWS V14.01,2013-09-15 06:25:00,
2013-09-15 02:30:00,51.6,50.5,30.04,North,360,0.0,6.0,96,0.00,,,0.00,VWS V14.01,2013-09-15 06:30:00,
2013-09-15 02:35:00,51.6,50.5,30.04,North,360,0.0,6.0,96,0.00,,,0.00,VWS V14.01,2013-09-15 06:35:00,
2013-09-15 02:40:00,51.7,50.6,30.04,North,360,0.0,6.0,96,0.00,,,0.00,VWS V14.01,2013-09-15 06:40:00,
2013-09-15 02:45:00,51.7,50.6,30.04,North,360,0.0,6.0,96,0.00,,,0.00,VWS V14.01,2013-09-15 06:45:00,
2013-09-15 02:50:00,51.9,50.8,30.04,North,360,0.0,6.0,96,0.00,,,0.00,VWS V14.01,2013-09-15 06:50:00,
2013-09-15 02:55:00,52.2,51.1,30.04,North,360,0.0,6.0,96,0.00,,,0.00,VWS V14.01,2013-09-15 06:55:00,
2013-09-15 03:00:00,52.3,51.2,30.04,North,360,0.0,6.0,96,0.00,,,0.00,VWS V14.01,2013-09-15 07:00:00,
2013-09-15 03:05:00,52.5,51.7,30.04,North,360,0.0,6.0,97,0.00,,,0.00,VWS V14.01,2013-09-15 07:05:00,
2013-09-15 03:10:00,52.6,51.5,30.04,North,360,0.0,6.0,96,0.00,,,0.00,VWS V14.01,2013-09-15 07:10:00,
2013-09-15 03:11:00,52.5,51.4,30.04,North,360,0.0,6.0,96,0.00,,,0.00,VWS V14.01,2013-09-15 07:11:00,
2013-09-15 03:15:00,52.6,51.5,30.03,North,360,0.0,6.0,96,0.00,,,0.00,VWS V14.01,2013-09-15 07:15:00,
2013-09-15 03:16:00,52.6,51.5,30.04,North,360,0.0,6.0,96,0.00,,,0.00,VWS V14.01,2013-09-15 07:16:00,
2013-09-15 03:20:00,52.6,51.5,30.03,North,360,0.0,6.0,96,0.00,,,0.00,VWS V14.01,2013-09-15 07:20:00,
2013-09-15 03:21:00,52.6,51.5,30.03,North,360,0.0,6.0,96,0.00,,,0.00,VWS V14.01,2013-09-15 07:21:00,
2013-09-15 03:25:00,52.6,51.5,30.03,North,360,0.0,6.0,96,0.00,,,0.00,VWS V14.01,2013-09-15 07:25:00,
2013-09-15 03:26:00,52.6,51.5,30.03,North,360,0.0,6.0,96,0.00,,,0.00,VWS V14.01,2013-09-15 07:26:00,
2013-09-15 03:30:00,52.8,51.7,30.03,North,360,0.0,6.0,96,0.00,,,0.00,VWS V14.01,2013-09-15 07:30:00,
2013-09-15 03:31:00,52.8,51.7,30.03,North,360,0.0,6.0,96,0.00,,,0.00,VWS V14.01,2013-09-15 07:31:00,
2013-09-15 03:35:00,52.8,51.7,30.03,North,360,0.0,6.0,96,0.00,,,0.00,VWS V14.01,2013-09-15 07:35:00,
2013-09-15 03:36:00,52.8,51.7,30.03,North,360,0.0,6.0,96,0.00,,,0.00,VWS V14.01,2013-09-15 07:36:00,
2013-09-15 03:40:00,52.8,51.7,30.03,North,360,0.0,6.0,96,0.00,,,0.00,VWS V14.01,2013-09-15 07:40:00,
2013-09-15 03:41:00,52.8,51.7,30.03,North,360,0.0,6.0,96,0.00,,,0.00,VWS V14.01,2013-09-15 07:41:00,
2013-09-15 03:45:00,52.8,51.7,30.03,North,360,0.0,6.0,96,0.00,,,0.00,VWS V14.01,2013-09-15 07:45:00,
2013-09-15 03:46:00,52.8,51.7,30.03,North,360,0.0,6.0,96,0.00,,,0.00,VWS V14.01,2013-09-15 07:46:00,
2013-09-15 03:50:00,52.8,51.7,30.03,North,360,0.0,6.0,96,0.00,,,0.00,VWS V14.01,2013-09-15 07:50:00,
2013-09-15 03:51:00,52.8,51.7,30.03,North,360,0.0,6.0,96,0.00,,,0.00,VWS V14.01,2013-09-15 07:51:00,
2013-09-15 03:55:00,52.6,51.5,30.03,North,360,0.0,6.0,96,0.00,,,0.00,VWS V14.01,2013-09-15 07:55:00,
2013-09-15 03:56:00,52.6,51.5,30.03,North,360,0.0,6.0,96,0.00,,,0.00,VWS V14.01,2013-09-15 07:56:00,
2013-09-15 04:00:00,52.6,51.5,30.03,North,360,0.0,6.0,96,0.00,,,0.00,VWS V14.01,2013-09-15 08:00:00,
2013-09-15 04:01:00,52.6,51.5,30.03,North,360,0.0,6.0,96,0.00,,,0.00,VWS V14.01,2013-09-15 08:01:00,
2013-09-15 04:05:00,52.5,51.4,30.03,North,360,0.0,6.0,96,0.00,,,0.00,VWS V14.01,2013-09-15 08:05:00,
2013-09-15 04:06:00,52.6,51.5,30.03,North,360,0.0,6.0,96,0.00,,,0.00,VWS V14.01,2013-09-15 08:06:00,
2013-09-15 04:10:00,52.5,51.4,30.03,North,360,0.0,6.0,96,0.00,,,0.00,VWS V14.01,2013-09-15 08:10:00,
2013-09-15 04:11:00,52.5,51.4,30.03,North,360,0.0,6.0,96,0.00,,,0.00,VWS V14.01,2013-09-15 08:11:00,
2013-09-15 04:15:00,52.5,51.4,30.04,North,360,0.0,6.0,96,0.00,,,0.00,VWS V14.01,2013-09-15 08:15:00,
2013-09-15 04:16:00,52.3,51.2,30.03,North,360,0.0,6.0,96,0.00,,,0.00,VWS V14.01,2013-09-15 08:16:00,
2013-09-15 04:20:00,52.5,51.4,30.04,North,360,0.0,6.0,96,0.00,,,0.00,VWS V14.01,2013-09-15 08:20:00,
2013-09-15 04:21:00,52.3,51.2,30.04,North,360,1.0,6.0,96,0.00,,,0.00,VWS V14.01,2013-09-15 08:21:00,
2013-09-15 04:25:00,52.3,51.2,30.04,North,360,0.0,6.0,96,0.00,,,0.00,VWS V14.01,2013-09-15 08:25:00,
2013-09-15 04:26:00,52.3,51.2,30.04,North,360,0.0,6.0,96,0.00,,,0.00,VWS V14.01,2013-09-15 08:26:00,
2013-09-15 04:30:00,52.3,51.2,30.04,North,360,0.0,6.0,96,0.00,,,0.00,VWS V14.01,2013-09-15 08:30:00,
2013-09-15 04:32:00,52.3,51.2,30.04,North,360,0.0,6.0,96,0.00,,,0.00,VWS V14.01,2013-09-15 08:32:00,
2013-09-15 04:35:00,52.2,51.1,30.04,North,360,0.0,6.0,96,0.00,,,0.00,VWS V14.01,2013-09-15 08:35:00,
2013-09-15 04:37:00,52.2,51.1,30.04,North,360,0.0,6.0,96,0.00,,,0.00,VWS V14.01,2013-09-15 08:37:00,
2013-09-15 04:40:00,52.0,50.9,30.04,North,360,0.0,6.0,96,0.00,,,0.00,VWS V14.01,2013-09-15 08:40:00,
2013-09-15 04:42:00,52.2,51.1,30.04,North,360,0.0,6.0,96,0.00,,,0.00,VWS V14.01,2013-09-15 08:42:00,
2013-09-15 04:45:00,52.0,50.9,30.04,North,360,0.0,6.0,96,0.00,,,0.00,VWS V14.01,2013-09-15 08:45:00,
2013-09-15 04:47:00,52.0,50.9,30.04,North,360,0.0,6.0,96,0.00,,,0.00,VWS V14.01,2013-09-15 08:47:00,
2013-09-15 04:50:00,51.9,50.8,30.04,North,360,0.0,6.0,96,0.00,,,0.00,VWS V14.01,2013-09-15 08:50:00,
2013-09-15 04:52:00,52.0,50.9,30.04,North,360,0.0,6.0,96,0.00,,,0.00,VWS V14.01,2013-09-15 08:52:00,
2013-09-15 04:55:00,51.9,50.8,30.04,North,360,0.0,6.0,96,0.00,,,0.00,VWS V14.01,2013-09-15 08:55:00,
2013-09-15 04:57:00,51.9,50.8,30.04,North,360,0.0,6.0,96,0.00,,,0.00,VWS V14.01,2013-09-15 08:57:00,
2013-09-15 05:00:00,51.9,50.8,30.05,North,360,0.0,6.0,96,0.00,,,0.00,VWS V14.01,2013-09-15 09:00:00,
2013-09-15 05:02:00,51.9,50.8,30.04,North,360,0.0,6.0,96,0.00,,,0.00,VWS V14.01,2013-09-15 09:02:00,
2013-09-15 05:05:00,51.9,50.8,30.05,North,360,0.0,6.0,96,0.00,,,0.00,VWS V14.01,2013-09-15 09:05:00,
2013-09-15 05:07:00,51.9,50.8,30.05,North,360,0.0,6.0,96,0.00,,,0.00,VWS V14.01,2013-09-15 09:07:00,
2013-09-15 05:10:00,51.9,50.8,30.05,North,360,0.0,6.0,96,0.00,,,0.00,VWS V14.01,2013-09-15 09:10:00,
2013-09-15 05:12:00,51.9,50.8,30.05,North,360,0.0,6.0,96,0.00,,,0.00,VWS V14.01,2013-09-15 09:12:00,
2013-09-15 05:15:00,51.9,50.8,30.06,North,360,0.0,6.0,96,0.00,,,0.00,VWS V14.01,2013-09-15 09:15:00,
2013-09-15 05:17:00,51.9,50.8,30.05,North,360,0.0,6.0,96,0.00,,,0.00,VWS V14.01,2013-09-15 09:17:00,
2013-09-15 05:20:00,51.7,50.6,30.06,North,360,0.0,6.0,96,0.00,,,0.00,VWS V14.01,2013-09-15 09:20:00,
2013-09-15 05:22:00,51.7,50.6,30.06,North,360,0.0,6.0,96,0.00,,,0.00,VWS V14.01,2013-09-15 09:22:00,
2013-09-15 05:25:00,51.7,50.6,30.06,North,360,0.0,6.0,96,0.00,,,0.00,VWS V14.01,2013-09-15 09:25:00,
2013-09-15 05:27:00,51.7,50.6,30.06,North,360,0.0,6.0,96,0.00,,,0.00,VWS V14.01,2013-09-15 09:27:00,
2013-09-15 05:30:00,51.7,50.6,30.06,North,360,0.0,6.0,96,0.00,,,0.00,VWS V14.01,2013-09-15 09:30:00,
2013-09-15 05:32:00,51.7,50.6,30.06,North,360,0.0,6.0,96,0.00,,,0.00,VWS V14.01,2013-09-15 09:32:00,
2013-09-15 05:35:00,51.6,50.5,30.06,North,360,0.0,6.0,96,0.00,,,0.00,VWS V14.01,2013-09-15 09:35:00,
2013-09-15 05:37:00,51.6,50.5,30.06,North,360,0.0,6.0,96,0.00,,,0.00,VWS V14.01,2013-09-15 09:37:00,
2013-09-15 05:40:00,51.6,50.5,30.06,North,360,0.0,6.0,96,0.00,,,0.00,VWS V14.01,2013-09-15 09:40:00,
2013-09-15 05:42:00,51.6,50.5,30.06,North,360,0.0,6.0,96,0.00,,,0.00,VWS V14.01,2013-09-15 09:42:00,
2013-09-15 05:45:00,51.6,50.5,30.06,North,360,0.0,6.0,96,0.00,,,0.00,VWS V14.01,2013-09-15 09:45:00,
2013-09-15 05:47:00,51.6,50.5,30.06,North,360,0.0,6.0,96,0.00,,,0.00,VWS V14.01,2013-09-15 09:47:00,
2013-09-15 05:50:00,51.4,50.3,30.06,North,360,0.0,6.0,96,0.00,,,0.00,VWS V14.01,2013-09-15 09:50:00,
2013-09-15 05:52:00,51.4,50.3,30.06,North,360,0.0,6.0,96,0.00,,,0.00,VWS V14.01,2013-09-15 09:52:00,
2013-09-15 05:55:00,51.4,50.3,30.06,North,360,0.0,6.0,96,0.00,,,0.00,VWS V14.01,2013-09-15 09:55:00,
2013-09-15 05:57:00,51.4,50.3,30.06,North,360,0.0,6.0,96,0.00,,,0.00,VWS V14.01,2013-09-15 09:57:00,
2013-09-15 06:00:00,51.4,50.6,30.07,North,360,0.0,6.0,97,0.00,,,0.00,VWS V14.01,2013-09-15 10:00:00,
2013-09-15 06:02:00,51.4,50.3,30.07,North,360,0.0,6.0,96,0.00,,,0.00,VWS V14.01,2013-09-15 10:02:00,
2013-09-15 06:05:00,51.4,50.6,30.07,North,360,0.0,6.0,97,0.00,,,0.00,VWS V14.01,2013-09-15 10:05:00,
2013-09-15 06:07:00,51.4,50.6,30.07,North,360,0.0,6.0,97,0.00,,,0.00,VWS V14.01,2013-09-15 10:07:00,
2013-09-15 06:10:00,51.4,50.3,30.07,North,360,0.0,6.0,96,0.00,,,0.00,VWS V14.01,2013-09-15 10:10:00,
2013-09-15 06:12:00,51.4,50.3,30.07,North,360,0.0,6.0,96,0.00,,,0.00,VWS V14.01,2013-09-15 10:12:00,
2013-09-15 06:15:00,51.4,50.3,30.08,North,360,0.0,6.0,96,0.00,,,0.00,VWS V14.01,2013-09-15 10:15:00,
2013-09-15 06:17:00,51.4,50.3,30.08,North,360,0.0,6.0,96,0.00,,,0.00,VWS V14.01,2013-09-15 10:17:00,
2013-09-15 06:20:00,51.3,50.5,30.08,North,360,0.0,6.0,97,0.00,,,0.00,VWS V14.01,2013-09-15 10:20:00,
2013-09-15 06:22:00,51.3,50.5,30.08,North,360,0.0,6.0,97,0.00,,,0.00,VWS V14.01,2013-09-15 10:22:00,
2013-09-15 06:25:00,51.4,50.6,30.08,North,360,0.0,6.0,97,0.00,,,0.00,VWS V14.01,2013-09-15 10:25:00,
2013-09-15 06:28:00,51.4,50.6,30.08,North,360,0.0,6.0,97,0.00,,,0.00,VWS V14.01,2013-09-15 10:28:00,
2013-09-15 06:30:00,51.4,50.6,30.08,North,360,0.0,6.0,97,0.00,,,0.00,VWS V14.01,2013-09-15 10:30:00,
2013-09-15 06:33:00,51.4,50.6,30.08,North,360,0.0,6.0,97,0.00,,,0.00,VWS V14.01,2013-09-15 10:33:00,
2013-09-15 06:35:00,51.4,50.6,30.08,North,360,0.0,6.0,97,0.00,,,0.00,VWS V14.01,2013-09-15 10:35:00,
2013-09-15 06:38:00,51.4,50.6,30.08,North,360,0.0,6.0,97,0.00,,,0.00,VWS V14.01,2013-09-15 10:38:00,
2013-09-15 06:40:00,51.4,50.6,30.08,North,360,0.0,6.0,97,0.00,,,0.00,VWS V14.01,2013-09-15 10:40:00,
2013-09-15 06:43:00,51.4,50.6,30.08,North,360,0.0,6.0,97,0.00,,,0.00,VWS V14.01,2013-09-15 10:43:00,
2013-09-15 06:45:00,51.4,50.6,30.09,North,360,0.0,6.0,97,0.00,,,0.00,VWS V14.01,2013-09-15 10:45:00,
2013-09-15 06:48:00,51.4,50.6,30.09,North,360,0.0,6.0,97,0.00,,,0.00,VWS V14.01,2013-09-15 10:48:00,
2013-09-15 06:50:00,51.6,50.8,30.09,North,360,0.0,6.0,97,0.00,,,0.00,VWS V14.01,2013-09-15 10:50:00,
2013-09-15 06:53:00,51.6,50.8,30.09,North,360,0.0,6.0,97,0.00,,,0.00,VWS V14.01,2013-09-15 10:53:00,
2013-09-15 06:55:00,51.6,50.8,30.09,North,360,0.0,6.0,97,0.00,,,0.00,VWS V14.01,2013-09-15 10:55:00,
2013-09-15 06:58:00,51.6,50.8,30.09,North,360,0.0,6.0,97,0.00,,,0.00,VWS V14.01,2013-09-15 10:58:00,
2013-09-15 07:00:00,51.6,50.8,30.09,North,360,0.0,6.0,97,0.00,,,0.00,VWS V14.01,2013-09-15 11:00:00,
2013-09-15 07:03:00,51.6,50.8,30.09,North,360,0.0,6.0,97,0.00,,,0.00,VWS V14.01,2013-09-15 11:03:00,
2013-09-15 07:05:00,51.6,50.8,30.09,North,360,0.0,6.0,97,0.00,,,0.00,VWS V14.01,2013-09-15 11:05:00,
2013-09-15 07:08:00,51.6,50.8,30.09,North,360,0.0,6.0,97,0.00,,,0.00,VWS V14.01,2013-09-15 11:08:00,
2013-09-15 07:10:00,51.6,50.8,30.09,North,360,0.0,6.0,97,0.00,,,0.00,VWS V14.01,2013-09-15 11:10:00,
2013-09-15 07:13:00,51.6,50.8,30.09,North,360,0.0,6.0,97,0.00,,,0.00,VWS V14.01,2013-09-15 11:13:00,
2013-09-15 07:15:00,51.6,50.8,30.11,North,360,0.0,6.0,97,0.00,,,0.00,VWS V14.01,2013-09-15 11:15:00,
2013-09-15 07:18:00,51.6,50.8,30.11,North,360,0.0,6.0,97,0.00,,,0.00,VWS V14.01,2013-09-15 11:18:00,
2013-09-15 07:20:00,51.4,50.6,30.11,North,360,0.0,6.0,97,0.00,,,0.00,VWS V14.01,2013-09-15 11:20:00,
2013-09-15 07:23:00,51.4,50.6,30.11,North,360,0.0,6.0,97,0.00,,,0.00,VWS V14.01,2013-09-15 11:23:00,
2013-09-15 07:25:00,51.3,50.5,30.11,North,360,0.0,6.0,97,0.00,,,0.00,VWS V14.01,2013-09-15 11:25:00,
2013-09-15 07:28:00,51.3,50.5,30.11,North,360,0.0,6.0,97,0.00,,,0.00,VWS V14.01,2013-09-15 11:28:00,
2013-09-15 07:30:00,51.3,50.5,30.12,North,360,0.0,6.0,97,0.00,,,0.00,VWS V14.01,2013-09-15 11:30:00,
2013-09-15 07:33:00,51.3,50.5,30.12,North,360,0.0,6.0,97,0.00,,,0.00,VWS V14.01,2013-09-15 11:33:00,
2013-09-15 07:35:00,51.3,50.5,30.12,North,360,0.0,6.0,97,0.00,,,0.00,VWS V14.01,2013-09-15 11:35:00,
2013-09-15 07:38:00,51.3,50.5,30.12,North,360,0.0,6.0,97,0.00,,,0.00,VWS V14.01,2013-09-15 11:38:00,
2013-09-15 07:40:00,51.4,50.6,30.12,North,360,0.0,6.0,97,0.00,,,0.00,VWS V14.01,2013-09-15 11:40:00,
2013-09-15 07:43:00,51.4,50.6,30.12,North,360,0.0,6.0,97,0.00,,,0.00,VWS V14.01,2013-09-15 11:43:00,
2013-09-15 07:45:00,51.4,50.6,30.12,North,360,0.0,6.0,97,0.00,,,0.00,VWS V14.01,2013-09-15 11:45:00,
2013-09-15 07:48:00,51.4,50.6,30.12,North,360,0.0,6.0,97,0.00,,,0.00,VWS V14.01,2013-09-15 11:48:00,
2013-09-15 07:50:00,51.6,50.8,30.12,North,360,0.0,6.0,97,0.00,,,0.00,VWS V14.01,2013-09-15 11:50:00,
2013-09-15 07:53:00,51.6,50.8,30.12,North,360,0.0,6.0,97,0.00,,,0.00,VWS V14.01,2013-09-15 11:53:00,
2013-09-15 07:55:00,51.6,50.8,30.12,North,360,0.0,6.0,97,0.00,,,0.00,VWS V14.01,2013-09-15 11:55:00,
2013-09-15 07:58:00,51.6,50.8,30.12,North,360,0.0,6.0,97,0.00,,,0.00,VWS V14.01,2013-09-15 11:58:00,
2013-09-15 08:00:00,51.7,50.9,30.12,North,360,0.0,6.0,97,0.00,,,0.00,VWS V14.01,2013-09-15 12:00:00,
2013-09-15 08:03:00,51.7,50.9,30.12,North,360,0.0,6.0,97,0.00,,,0.00,VWS V14.01,2013-09-15 12:03:00,
2013-09-15 08:05:00,51.9,51.1,30.12,North,360,0.0,6.0,97,0.00,,,0.00,VWS V14.01,2013-09-15 12:05:00,
2013-09-15 08:08:00,51.9,51.1,30.12,North,360,0.0,6.0,97,0.00,,,0.00,VWS V14.01,2013-09-15 12:08:00,
2013-09-15 08:10:00,52.0,51.2,30.12,North,360,0.0,6.0,97,0.00,,,0.00,VWS V14.01,2013-09-15 12:10:00,
2013-09-15 08:13:00,52.2,51.4,30.12,North,360,0.0,6.0,97,0.00,,,0.00,VWS V14.01,2013-09-15 12:13:00,
2013-09-15 08:15:00,52.3,51.5,30.13,North,360,0.0,6.0,97,0.00,,,0.00,VWS V14.01,2013-09-15 12:15:00,
2013-09-15 08:19:00,52.3,51.5,30.13,North,360,0.0,6.0,97,0.00,,,0.00,VWS V14.01,2013-09-15 12:19:00,
2013-09-15 08:20:00,52.5,52.0,30.13,North,360,0.0,6.0,98,0.00,,,0.00,VWS V14.01,2013-09-15 12:20:00,
2013-09-15 08:24:00,52.6,52.0,30.13,North,360,0.0,6.0,98,0.00,,,0.00,VWS V14.01,2013-09-15 12:24:00,
2013-09-15 08:25:00,52.8,52.2,30.13,North,360,0.0,6.0,98,0.00,,,0.00,VWS V14.01,2013-09-15 12:25:00,
2013-09-15 08:29:00,52.8,52.2,30.13,North,360,0.0,6.0,98,0.00,,,0.00,VWS V14.01,2013-09-15 12:29:00,
2013-09-15 08:30:00,53.1,52.5,30.13,North,360,0.0,6.0,98,0.00,,,0.00,VWS V14.01,2013-09-15 12:30:00,
2013-09-15 08:34:00,53.1,52.5,30.13,North,360,0.0,6.0,98,0.00,,,0.00,VWS V14.01,2013-09-15 12:34:00,
2013-09-15 08:35:00,53.3,52.8,30.13,North,360,0.0,6.0,98,0.00,,,0.00,VWS V14.01,2013-09-15 12:35:00,
2013-09-15 08:39:00,53.3,52.8,30.13,North,360,0.0,6.0,98,0.00,,,0.00,VWS V14.01,2013-09-15 12:39:00,
2013-09-15 08:40:00,53.5,53.0,30.13,North,360,0.0,6.0,98,0.00,,,0.00,VWS V14.01,2013-09-15 12:40:00,
2013-09-15 08:44:00,53.6,53.0,30.13,North,360,0.0,6.0,98,0.00,,,0.00,VWS V14.01,2013-09-15 12:44:00,
2013-09-15 08:45:00,53.9,53.3,30.13,North,360,0.0,6.0,98,0.00,,,0.00,VWS V14.01,2013-09-15 12:45:00,
2013-09-15 08:49:00,53.9,53.3,30.13,North,360,0.0,6.0,98,0.00,,,0.00,VWS V14.01,2013-09-15 12:49:00,
2013-09-15 08:50:00,54.2,53.7,30.13,North,360,0.0,6.0,98,0.00,,,0.00,VWS V14.01,2013-09-15 12:50:00,
2013-09-15 08:54:00,54.2,53.7,30.13,North,360,0.0,6.0,98,0.00,,,0.00,VWS V14.01,2013-09-15 12:54:00,
2013-09-15 08:55:00,54.4,53.8,30.13,North,360,0.0,6.0,98,0.00,,,0.00,VWS V14.01,2013-09-15 12:55:00,
2013-09-15 08:59:00,54.5,54.0,30.13,North,360,0.0,6.0,98,0.00,,,0.00,VWS V14.01,2013-09-15 12:59:00,
2013-09-15 09:00:00,54.7,54.2,30.13,North,360,1.0,6.0,98,0.00,,,0.00,VWS V14.01,2013-09-15 13:00:00,
2013-09-15 09:04:00,54.7,54.2,30.13,North,360,0.0,6.0,98,0.00,,,0.00,VWS V14.01,2013-09-15 13:04:00,
2013-09-15 09:05:00,55.0,54.5,30.13,North,360,1.0,6.0,98,0.00,,,0.00,VWS V14.01,2013-09-15 13:05:00,
2013-09-15 09:09:00,55.0,54.5,30.13,North,360,0.0,6.0,98,0.00,,,0.00,VWS V14.01,2013-09-15 13:09:00,
2013-09-15 09:10:00,55.1,54.3,30.13,North,360,0.0,6.0,97,0.00,,,0.00,VWS V14.01,2013-09-15 13:10:00,
2013-09-15 09:14:00,55.1,54.3,30.13,North,360,0.0,6.0,97,0.00,,,0.00,VWS V14.01,2013-09-15 13:14:00,
2013-09-15 09:15:00,55.3,54.5,30.14,North,360,0.0,6.0,97,0.00,,,0.00,VWS V14.01,2013-09-15 13:15:00,
2013-09-15 09:19:00,55.3,54.5,30.14,North,360,0.0,6.0,97,0.00,,,0.00,VWS V14.01,2013-09-15 13:19:00,
2013-09-15 09:20:00,55.4,54.6,30.14,North,360,0.0,6.0,97,0.00,,,0.00,VWS V14.01,2013-09-15 13:20:00,
2013-09-15 09:24:00,55.4,54.6,30.14,North,360,0.0,6.0,97,0.00,,,0.00,VWS V14.01,2013-09-15 13:24:00,
2013-09-15 09:25:00,55.6,54.8,30.14,North,360,0.0,6.0,97,0.00,,,0.00,VWS V14.01,2013-09-15 13:25:00,
2013-09-15 09:29:00,55.6,54.8,30.14,West,265,0.0,6.0,97,0.00,,,0.00,VWS V14.01,2013-09-15 13:29:00,
2013-09-15 09:30:00,55.7,54.6,30.14,West,265,0.0,6.0,96,0.00,,,0.00,VWS V14.01,2013-09-15 13:30:00,
2013-09-15 09:34:00,55.9,54.8,30.14,West,265,0.0,6.0,96,0.00,,,0.00,VWS V14.01,2013-09-15 13:34:00,
2013-09-15 09:35:00,56.0,54.9,30.14,West,279,1.0,6.0,96,0.00,,,0.00,VWS V14.01,2013-09-15 13:35:00,
2013-09-15 09:39:00,56.3,54.9,30.14,West,279,3.0,6.0,95,0.00,,,0.00,VWS V14.01,2013-09-15 13:39:00,
2013-09-15 09:40:00,56.6,54.9,30.14,West,279,0.0,6.0,94,0.00,,,0.00,VWS V14.01,2013-09-15 13:40:00,
2013-09-15 09:44:00,56.7,55.0,30.14,West,279,0.0,6.0,94,0.00,,,0.00,VWS V14.01,2013-09-15 13:44:00,
2013-09-15 09:45:00,57.0,54.7,30.13,West,279,0.0,6.0,92,0.00,,,0.00,VWS V14.01,2013-09-15 13:45:00,
2013-09-15 09:49:00,57.2,54.9,30.13,West,279,3.0,6.0,92,0.00,,,0.00,VWS V14.01,2013-09-15 13:49:00,
2013-09-15 09:50:00,57.5,54.9,30.13,West,279,0.0,6.0,91,0.00,,,0.00,VWS V14.01,2013-09-15 13:50:00,
2013-09-15 09:54:00,57.6,55.0,30.13,West,279,1.0,6.0,91,0.00,,,0.00,VWS V14.01,2013-09-15 13:54:00,
2013-09-15 09:55:00,58.0,54.5,30.13,West,279,1.0,6.0,88,0.00,,,0.00,VWS V14.01,2013-09-15 13:55:00,
2013-09-15 09:59:00,58.1,54.6,30.13,West,279,1.0,6.0,88,0.00,,,0.00,VWS V14.01,2013-09-15 13:59:00,
2013-09-15 10:00:00,58.6,54.8,30.13,West,279,0.0,6.0,87,0.00,,,0.00,VWS V14.01,2013-09-15 14:00:00,
2013-09-15 10:04:00,58.7,54.8,30.13,West,279,0.0,6.0,87,0.00,,,0.00,VWS V14.01,2013-09-15 14:04:00,
2013-09-15 10:05:00,58.9,54.4,30.13,West,279,0.0,6.0,85,0.00,,,0.00,VWS V14.01,2013-09-15 14:05:00,
2013-09-15 10:09:00,59.0,54.5,30.13,West,279,0.0,6.0,85,0.00,,,0.00,VWS V14.01,2013-09-15 14:09:00,
2013-09-15 10:10:00,59.3,54.5,30.13,West,279,2.0,6.0,84,0.00,,,0.00,VWS V14.01,2013-09-15 14:10:00,
2013-09-15 10:15:00,59.5,54.7,30.13,West,279,3.0,6.0,84,0.00,,,0.00,VWS V14.01,2013-09-15 14:15:00,
2013-09-15 10:20:00,60.1,55.3,30.13,West,279,0.0,6.0,84,0.00,,,0.00,VWS V14.01,2013-09-15 14:20:00,
2013-09-15 10:25:00,60.4,55.2,30.13,West,279,1.0,6.0,83,0.00,,,0.00,VWS V14.01,2013-09-15 14:25:00,
2013-09-15 10:30:00,60.7,55.2,30.13,West,279,2.0,6.0,82,0.00,,,0.00,VWS V14.01,2013-09-15 14:30:00,
2013-09-15 10:35:00,61.0,54.8,30.13,West,279,0.0,6.0,80,0.00,,,0.00,VWS V14.01,2013-09-15 14:35:00,
2013-09-15 10:40:00,61.3,55.1,30.13,West,269,1.0,6.0,80,0.00,,,0.00,VWS V14.01,2013-09-15 14:40:00,
2013-09-15 10:45:00,61.6,55.0,30.13,West,261,1.0,6.0,79,0.00,,,0.00,VWS V14.01,2013-09-15 14:45:00,
2013-09-15 10:50:00,62.1,55.5,30.13,West,270,0.0,3.0,79,0.00,,,0.00,VWS V14.01,2013-09-15 14:50:00,
2013-09-15 10:55:00,62.4,55.8,30.13,West,270,0.0,1.0,79,0.00,,,0.00,VWS V14.01,2013-09-15 14:55:00,
2013-09-15 11:00:00,62.7,56.1,30.13,West,270,0.0,1.0,79,0.00,,,0.00,VWS V14.01,2013-09-15 15:00:00,
2013-09-15 11:05:00,63.1,55.8,30.13,West,270,0.0,2.0,77,0.00,,,0.00,VWS V14.01,2013-09-15 15:05:00,
2013-09-15 11:10:00,63.4,55.7,30.13,WSW,248,1.0,4.0,76,0.00,,,0.00,VWS V14.01,2013-09-15 15:10:00,
2013-09-15 11:15:00,63.9,55.5,30.12,WSW,248,1.0,3.0,74,0.00,,,0.00,VWS V14.01,2013-09-15 15:15:00,
2013-09-15 11:20:00,64.5,56.0,30.12,WSW,248,1.0,3.0,74,0.00,,,0.00,VWS V14.01,2013-09-15 15:20:00,
2013-09-15 11:25:00,65.0,56.5,30.12,WSW,248,1.0,5.0,74,0.00,,,0.00,VWS V14.01,2013-09-15 15:25:00,
2013-09-15 11:30:00,65.3,55.3,30.13,West,270,0.0,3.0,70,0.00,,,0.00,VWS V14.01,2013-09-15 15:30:00,
2013-09-15 11:35:00,65.8,55.8,30.13,WNW,292,1.0,3.0,70,0.00,,,0.00,VWS V14.01,2013-09-15 15:35:00,
2013-09-15 11:40:00,66.1,55.7,30.13,WNW,292,0.0,3.0,69,0.00,,,0.00,VWS V14.01,2013-09-15 15:40:00,
2013-09-15 11:45:00,66.4,55.5,30.12,West,270,1.0,3.0,68,0.00,,,0.00,VWS V14.01,2013-09-15 15:45:00,
2013-09-15 11:50:00,66.8,55.9,30.12,WSW,248,1.0,4.0,68,0.00,,,0.00,VWS V14.01,2013-09-15 15:50:00,
2013-09-15 11:55:00,67.1,56.2,30.12,WSW,248,1.0,3.0,68,0.00,,,0.00,VWS V14.01,2013-09-15 15:55:00,
2013-09-15 12:00:00,67.6,56.3,30.11,WSW,248,0.0,4.0,67,0.00,,,0.00,VWS V14.01,2013-09-15 16:00:00,
2013-09-15 12:05:00,68.3,56.9,30.11,West,270,0.0,2.0,67,0.00,,,0.00,VWS V14.01,2013-09-15 16:05:00,
2013-09-15 12:10:00,68.9,56.7,30.11,WNW,292,1.0,2.0,65,0.00,,,0.00,VWS V14.01,2013-09-15 16:10:00,
2013-09-15 12:15:00,69.9,57.2,30.11,WNW,292,1.0,5.0,64,0.00,,,0.00,VWS V14.01,2013-09-15 16:15:00,
2013-09-15 12:20:00,70.6,57.0,30.11,WSW,248,0.0,2.0,62,0.00,,,0.00,VWS V14.01,2013-09-15 16:20:00,
2013-09-15 12:25:00,71.3,56.7,30.11,NNE,22,0.0,3.0,60,0.00,,,0.00,VWS V14.01,2013-09-15 16:25:00,
2013-09-15 12:30:00,72.3,57.7,30.10,NNE,22,0.0,1.0,60,0.00,,,0.00,VWS V14.01,2013-09-15 16:30:00,
2013-09-15 12:35:00,72.7,57.1,30.10,NNE,22,0.0,1.0,58,0.00,,,0.00,VWS V14.01,2013-09-15 16:35:00,
2013-09-15 12:40:00,73.0,56.9,30.10,NNE,22,0.0,1.0,57,0.00,,,0.00,VWS V14.01,2013-09-15 16:40:00,
2013-09-15 12:45:00,73.5,57.3,30.10,NNE,22,0.0,2.0,57,0.00,,,0.00,VWS V14.01,2013-09-15 16:45:00,
2013-09-15 12:50:00,73.7,58.0,30.10,NNE,22,0.0,1.0,58,0.00,,,0.00,VWS V14.01,2013-09-15 16:50:00,
2013-09-15 12:55:00,73.5,56.9,30.10,NE,45,1.0,4.0,56,0.00,,,0.00,VWS V14.01,2013-09-15 16:55:00,
2013-09-15 13:00:00,73.3,56.2,30.10,North,0,2.0,5.0,55,0.00,,,0.00,VWS V14.01,2013-09-15 17:00:00,
2013-09-15 13:05:00,73.7,57.5,30.10,North,0,0.0,2.0,57,0.00,,,0.00,VWS V14.01,2013-09-15 17:05:00,
2013-09-15 13:10:00,74.4,57.2,30.10,NW,315,1.0,3.0,55,0.00,,,0.00,VWS V14.01,2013-09-15 17:10:00,
2013-09-15 13:15:00,74.2,56.0,30.09,ENE,68,1.0,3.0,53,0.00,,,0.00,VWS V14.01,2013-09-15 17:15:00,
2013-09-15 13:20:00,74.9,56.1,30.09,NNE,22,0.0,2.0,52,0.00,,,0.00,VWS V14.01,2013-09-15 17:20:00,
2013-09-15 13:25:00,76.5,54.8,30.09,West,270,1.0,6.0,47,0.00,,,0.00,VWS V14.01,2013-09-15 17:25:00,
2013-09-15 13:30:00,77.4,55.0,30.08,West,270,1.0,4.0,46,0.00,,,0.00,VWS V14.01,2013-09-15 17:30:00,
2013-09-15 13:35:00,77.7,56.5,30.08,WNW,292,1.0,5.0,48,0.00,,,0.00,VWS V14.01,2013-09-15 17:35:00,
2013-09-15 13:40:00,78.5,56.6,30.08,North,0,0.0,2.0,47,0.00,,,0.00,VWS V14.01,2013-09-15 17:40:00,
2013-09-15 13:45:00,78.6,57.3,30.07,North,0,1.0,4.0,48,0.00,,,0.00,VWS V14.01,2013-09-15 17:45:00,
2013-09-15 13:50:00,78.3,55.8,30.07,West,270,1.0,4.0,46,0.00,,,0.00,VWS V14.01,2013-09-15 17:50:00,
2013-09-15 13:55:00,77.9,55.5,30.07,NW,315,1.0,3.0,46,0.00,,,0.00,VWS V14.01,2013-09-15 17:55:00,
2013-09-15 14:00:00,77.2,56.6,30.08,NNW,338,2.0,7.0,49,0.00,,,0.00,VWS V14.01,2013-09-15 18:00:00,
2013-09-15 14:05:00,76.8,56.8,30.08,WNW,292,3.0,9.0,50,0.00,,,0.00,VWS V14.01,2013-09-15 18:05:00,
2013-09-15 14:10:00,76.8,55.7,30.08,NW,315,1.0,5.0,48,0.00,,,0.00,VWS V14.01,2013-09-15 18:10:00,
2013-09-15 14:15:00,77.4,54.4,30.07,West,270,2.0,4.0,45,0.00,,,0.00,VWS V14.01,2013-09-15 18:15:00,
2013-09-15 14:20:00,77.7,57.0,30.07,WSW,248,1.0,3.0,49,0.00,,,0.00,VWS V14.01,2013-09-15 18:20:00,
2013-09-15 14:25:00,78.1,55.0,30.07,West,270,1.0,3.0,45,0.00,,,0.00,VWS V14.01,2013-09-15 18:25:00,
2013-09-15 14:30:00,79.2,55.4,30.05,West,270,0.0,2.0,44,0.00,,,0.00,VWS V14.01,2013-09-15 18:30:00,
2013-09-15 14:35:00,80.1,56.2,30.05,NNW,338,1.0,3.0,44,0.00,,,0.00,VWS V14.01,2013-09-15 18:35:00,
2013-09-15 14:40:00,80.1,56.2,30.05,West,270,2.0,5.0,44,0.00,,,0.00,VWS V14.01,2013-09-15 18:40:00,
2013-09-15 14:45:00,79.8,53.4,30.04,West,270,1.0,5.0,40,0.00,,,0.00,VWS V14.01,2013-09-15 18:45:00,
2013-09-15 14:50:00,79.8,53.4,30.04,NW,315,0.0,1.0,40,0.00,,,0.00,VWS V14.01,2013-09-15 18:50:00,
2013-09-15 14:55:00,80.7,54.8,30.04,NW,315,0.0,1.0,41,0.00,,,0.00,VWS V14.01,2013-09-15 18:55:00,
2013-09-15 15:00:00,81.2,56.0,30.04,NW,315,1.0,2.0,42,0.00,,,0.00,VWS V14.01,2013-09-15 19:00:00,
2013-09-15 15:05:00,80.7,57.4,30.04,West,270,1.0,3.0,45,0.00,,,0.00,VWS V14.01,2013-09-15 19:05:00,
2013-09-15 15:10:00,80.1,55.6,30.04,West,270,1.0,2.0,43,0.00,,,0.00,VWS V14.01,2013-09-15 19:10:00,
2013-09-15 15:15:00,80.1,55.6,30.03,West,270,1.0,3.0,43,0.00,,,0.00,VWS V14.01,2013-09-15 19:15:00,
2013-09-15 15:20:00,79.9,55.4,30.03,West,270,1.0,3.0,43,0.00,,,0.00,VWS V14.01,2013-09-15 19:20:00,
2013-09-15 15:25:00,79.4,54.3,30.03,NNW,338,0.0,3.0,42,0.00,,,0.00,VWS V14.01,2013-09-15 19:25:00,
2013-09-15 15:30:00,79.6,55.2,30.03,WNW,292,1.0,4.0,43,0.00,,,0.00,VWS V14.01,2013-09-15 19:30:00,
2013-09-15 15:35:00,78.6,54.9,30.03,WNW,292,0.0,1.0,44,0.00,,,0.00,VWS V14.01,2013-09-15 19:35:00,
2013-09-15 15:40:00,78.3,53.3,30.03,WNW,292,0.0,3.0,42,0.00,,,0.00,VWS V14.01,2013-09-15 19:40:00,
2013-09-15 15:45:00,78.8,53.8,30.02,WNW,292,0.0,3.0,42,0.00,,,0.00,VWS V14.01,2013-09-15 19:45:00,
2013-09-15 15:50:00,79.4,53.7,30.02,NNE,22,1.0,3.0,41,0.00,,,0.00,VWS V14.01,2013-09-15 19:50:00,
2013-09-15 15:55:00,80.1,53.6,30.02,NNW,338,0.0,2.0,40,0.00,,,0.00,VWS V14.01,2013-09-15 19:55:00,
2013-09-15 16:00:00,80.3,55.1,30.02,NNW,338,1.0,5.0,42,0.00,,,0.00,VWS V14.01,2013-09-15 20:00:00,
2013-09-15 16:05:00,80.1,55.0,30.02,West,270,1.0,3.0,42,0.00,,,0.00,VWS V14.01,2013-09-15 20:05:00,
2013-09-15 16:10:00,80.1,55.0,30.02,West,270,1.0,4.0,42,0.00,,,0.00,VWS V14.01,2013-09-15 20:10:00,
2013-09-15 16:15:00,79.4,55.0,30.02,West,270,0.0,3.0,43,0.00,,,0.00,VWS V14.01,2013-09-15 20:15:00,
2013-09-15 16:20:00,79.0,54.6,30.02,West,270,0.0,1.0,43,0.00,,,0.00,VWS V14.01,2013-09-15 20:20:00,
2013-09-15 16:25:00,78.8,55.1,30.02,West,270,0.0,2.0,44,0.00,,,0.00,VWS V14.01,2013-09-15 20:25:00,
2013-09-15 16:30:00,79.2,56.0,30.01,West,270,0.0,1.0,45,0.00,,,0.00,VWS V14.01,2013-09-15 20:30:00,
2013-09-15 16:35:00,79.9,56.7,30.01,West,270,0.0,1.0,45,0.00,,,0.00,VWS V14.01,2013-09-15 20:35:00,
2013-09-15 16:40:00,80.3,55.1,30.01,West,270,0.0,2.0,42,0.00,,,0.00,VWS V14.01,2013-09-15 20:40:00,
2013-09-15 16:45:00,80.7,56.2,30.01,West,270,0.0,1.0,43,0.00,,,0.00,VWS V14.01,2013-09-15 20:45:00,
2013-09-15 16:50:00,80.9,57.6,30.01,West,270,0.0,1.0,45,0.00,,,0.00,VWS V14.01,2013-09-15 20:50:00,
2013-09-15 16:55:00,80.9,55.0,30.01,West,270,0.0,3.0,41,0.00,,,0.00,VWS V14.01,2013-09-15 20:55:00,
2013-09-15 17:00:00,80.1,58.7,30.01,West,270,0.0,2.0,48,0.00,,,0.00,VWS V14.01,2013-09-15 21:00:00,
2013-09-15 17:05:00,79.6,57.0,30.01,West,270,0.0,2.0,46,0.00,,,0.00,VWS V14.01,2013-09-15 21:05:00,
2013-09-15 17:10:00,79.4,58.0,30.01,West,270,0.0,0.0,48,0.00,,,0.00,VWS V14.01,2013-09-15 21:10:00,
2013-09-15 17:15:00,79.4,59.2,30.01,West,270,0.0,0.0,50,0.00,,,0.00,VWS V14.01,2013-09-15 21:15:00,
2013-09-15 17:20:00,78.6,60.1,30.01,West,270,0.0,1.0,53,0.00,,,0.00,VWS V14.01,2013-09-15 21:20:00,
2013-09-15 17:25:00,78.1,60.6,30.01,West,270,0.0,0.0,55,0.00,,,0.00,VWS V14.01,2013-09-15 21:25:00,
2013-09-15 17:30:00,77.6,60.2,30.02,West,270,0.0,0.0,55,0.00,,,0.00,VWS V14.01,2013-09-15 21:30:00,
2013-09-15 17:35:00,77.0,60.6,30.02,West,270,0.0,0.0,57,0.00,,,0.00,VWS V14.01,2013-09-15 21:35:00,
2013-09-15 17:40:00,76.3,60.0,30.02,West,270,0.0,0.0,57,0.00,,,0.00,VWS V14.01,2013-09-15 21:40:00,
2013-09-15 17:45:00,76.0,60.7,30.02,West,270,0.0,0.0,59,0.00,,,0.00,VWS V14.01,2013-09-15 21:45:00,
2013-09-15 17:50:00,75.6,60.8,30.02,West,270,0.0,0.0,60,0.00,,,0.00,VWS V14.01,2013-09-15 21:50:00,
2013-09-15 17:55:00,75.1,60.3,30.02,West,270,0.0,0.0,60,0.00,,,0.00,VWS V14.01,2013-09-15 21:55:00,
2013-09-15 18:00:00,74.6,60.7,30.02,West,270,0.0,0.0,62,0.00,,,0.00,VWS V14.01,2013-09-15 22:00:00,
2013-09-15 18:05:00,73.9,61.0,30.02,West,270,0.0,0.0,64,0.00,,,0.00,VWS V14.01,2013-09-15 22:05:00,
2013-09-15 18:10:00,73.3,60.8,30.02,West,270,0.0,0.0,65,0.00,,,0.00,VWS V14.01,2013-09-15 22:10:00,
2013-09-15 18:20:00,72.8,61.2,30.03,West,270,0.0,0.0,67,0.00,,,0.00,VWS V14.01,2013-09-15 22:20:00,
2013-09-15 18:25:00,72.7,61.1,30.03,West,270,0.0,0.0,67,0.00,,,0.00,VWS V14.01,2013-09-15 22:25:00,
2013-09-15 18:30:00,72.8,62.5,30.02,West,270,0.0,0.0,70,0.00,,,0.00,VWS V14.01,2013-09-15 22:30:00,
2013-09-15 18:35:00,72.7,62.8,30.02,West,270,0.0,0.0,71,0.00,,,0.00,VWS V14.01,2013-09-15 22:35:00,
2013-09-15 18:40:00,72.1,62.6,30.02,West,270,0.0,0.0,72,0.00,,,0.00,VWS V14.01,2013-09-15 22:40:00,
2013-09-15 18:45:00,71.6,62.5,30.03,West,270,0.0,0.0,73,0.00,,,0.00,VWS V14.01,2013-09-15 22:45:00,
2013-09-15 18:50:00,71.1,62.4,30.03,West,270,0.0,0.0,74,0.00,,,0.00,VWS V14.01,2013-09-15 22:50:00,
2013-09-15 18:55:00,70.8,61.3,30.03,West,270,0.0,0.0,72,0.00,,,0.00,VWS V14.01,2013-09-15 22:55:00,
2013-09-15 19:00:00,70.3,61.6,30.03,West,270,0.0,0.0,74,0.00,,,0.00,VWS V14.01,2013-09-15 23:00:00,
2013-09-15 19:05:00,69.6,62.1,30.03,West,270,0.0,0.0,77,0.00,,,0.00,VWS V14.01,2013-09-15 23:05:00,
2013-09-15 19:10:00,69.1,62.0,30.03,West,270,0.0,0.0,78,0.00,,,0.00,VWS V14.01,2013-09-15 23:10:00,
2013-09-15 19:15:00,68.8,62.0,30.03,West,270,0.0,0.0,79,0.00,,,0.00,VWS V14.01,2013-09-15 23:15:00,
2013-09-15 19:20:00,68.4,62.3,30.03,West,270,0.0,0.0,81,0.00,,,0.00,VWS V14.01,2013-09-15 23:20:00,
2013-09-15 19:25:00,68.1,61.7,30.03,West,270,0.0,0.0,80,0.00,,,0.00,VWS V14.01,2013-09-15 23:25:00,
2013-09-15 19:30:00,67.8,62.1,30.04,West,270,0.0,0.0,82,0.00,,,0.00,VWS V14.01,2013-09-15 23:30:00,
2013-09-15 19:35:00,67.3,62.3,30.04,West,270,0.0,0.0,84,0.00,,,0.00,VWS V14.01,2013-09-15 23:35:00,
2013-09-15 19:40:00,66.8,61.5,30.04,West,270,0.0,0.0,83,0.00,,,0.00,VWS V14.01,2013-09-15 23:40:00,
2013-09-15 19:45:00,66.1,60.1,30.05,West,270,0.0,0.0,81,0.00,,,0.00,VWS V14.01,2013-09-15 23:45:00,
2013-09-15 19:50:00,65.6,60.0,30.05,West,270,0.0,0.0,82,0.00,,,0.00,VWS V14.01,2013-09-15 23:50:00,
2013-09-15 19:55:00,65.3,59.7,30.05,West,270,0.0,0.0,82,0.00,,,0.00,VWS V14.01,2013-09-15 23:55:00,
2013-09-15 20:00:00,65.2,60.2,30.05,West,270,0.0,0.0,84,0.00,,,0.00,VWS V14.01,2013-09-16 00:00:00,
2013-09-15 20:05:00,65.0,60.4,30.05,West,270,0.0,0.0,85,0.00,,,0.00,VWS V14.01,2013-09-16 00:05:00,
2013-09-15 20:10:00,64.7,59.8,30.05,West,270,0.0,0.0,84,0.00,,,0.00,VWS V14.01,2013-09-16 00:10:00,
2013-09-15 20:15:00,64.3,59.4,30.05,West,270,0.0,0.0,84,0.00,,,0.00,VWS V14.01,2013-09-16 00:15:00,
2013-09-15 20:20:00,64.2,59.6,30.05,West,270,0.0,0.0,85,0.00,,,0.00,VWS V14.01,2013-09-16 00:20:00,
2013-09-15 20:25:00,64.0,59.1,30.05,West,270,0.0,0.0,84,0.00,,,0.00,VWS V14.01,2013-09-16 00:25:00,
2013-09-15 20:30:00,64.0,59.7,30.05,West,270,0.0,0.0,86,0.00,,,0.00,VWS V14.01,2013-09-16 00:30:00,
2013-09-15 20:35:00,63.9,59.6,30.05,West,270,0.0,0.0,86,0.00,,,0.00,VWS V14.01,2013-09-16 00:35:00,
2013-09-15 20:40:00,63.5,59.2,30.05,West,270,0.0,0.0,86,0.00,,,0.00,VWS V14.01,2013-09-16 00:40:00,
2013-09-15 20:45:00,63.2,59.3,30.05,West,270,0.0,0.0,87,0.00,,,0.00,VWS V14.01,2013-09-16 00:45:00,
2013-09-15 20:50:00,62.9,58.7,30.05,West,270,0.0,0.0,86,0.00,,,0.00,VWS V14.01,2013-09-16 00:50:00,
2013-09-15 20:55:00,62.6,58.4,30.05,West,270,0.0,0.0,86,0.00,,,0.00,VWS V14.01,2013-09-16 00:55:00,
2013-09-15 21:00:00,62.3,57.7,30.06,West,270,0.0,0.0,85,0.00,,,0.00,VWS V14.01,2013-09-16 01:00:00,
2013-09-15 21:05:00,62.0,57.8,30.06,West,270,0.0,0.0,86,0.00,,,0.00,VWS V14.01,2013-09-16 01:05:00,
2013-09-15 21:10:00,61.6,57.7,30.06,West,270,0.0,0.0,87,0.00,,,0.00,VWS V14.01,2013-09-16 01:10:00,
2013-09-15 21:15:00,61.5,57.6,30.06,West,270,0.0,0.0,87,0.00,,,0.00,VWS V14.01,2013-09-16 01:15:00,
2013-09-15 21:20:00,61.2,57.3,30.06,West,270,0.0,0.0,87,0.00,,,0.00,VWS V14.01,2013-09-16 01:20:00,
2013-09-15 21:25:00,61.0,57.1,30.06,West,270,0.0,0.0,87,0.00,,,0.00,VWS V14.01,2013-09-16 01:25:00,
2013-09-15 21:30:00,60.9,57.0,30.06,West,270,0.0,0.0,87,0.00,,,0.00,VWS V14.01,2013-09-16 01:30:00,
2013-09-15 21:35:00,60.7,56.8,30.06,West,270,0.0,0.0,87,0.00,,,0.00,VWS V14.01,2013-09-16 01:35:00,
2013-09-15 21:40:00,60.5,56.9,30.06,West,270,0.0,0.0,88,0.00,,,0.00,VWS V14.01,2013-09-16 01:40:00,
2013-09-15 21:45:00,60.4,56.8,30.06,West,270,0.0,0.0,88,0.00,,,0.00,VWS V14.01,2013-09-16 01:45:00,
2013-09-15 21:50:00,60.1,56.5,30.06,West,270,0.0,0.0,88,0.00,,,0.00,VWS V14.01,2013-09-16 01:50:00,
2013-09-15 21:55:00,59.9,56.3,30.06,West,270,0.0,0.0,88,0.00,,,0.00,VWS V14.01,2013-09-16 01:55:00,
2013-09-15 22:00:00,59.8,56.2,30.07,West,270,0.0,0.0,88,0.00,,,0.00,VWS V14.01,2013-09-16 02:00:00,
2013-09-15 22:05:00,59.6,56.4,30.07,West,270,0.0,0.0,89,0.00,,,0.00,VWS V14.01,2013-09-16 02:05:00,
2013-09-15 22:10:00,59.6,56.4,30.07,West,270,0.0,0.0,89,0.00,,,0.00,VWS V14.01,2013-09-16 02:10:00,
2013-09-15 22:15:00,59.5,56.3,30.06,West,270,0.0,0.0,89,0.00,,,0.00,VWS V14.01,2013-09-16 02:15:00,
2013-09-15 22:20:00,59.3,56.1,30.06,West,270,0.0,0.0,89,0.00,,,0.00,VWS V14.01,2013-09-16 02:20:00,
2013-09-15 22:25:00,59.3,56.1,30.06,West,270,0.0,0.0,89,0.00,,,0.00,VWS V14.01,2013-09-16 02:25:00,
2013-09-15 22:30:00,59.2,56.3,30.05,West,270,0.0,0.0,90,0.00,,,0.00,VWS V14.01,2013-09-16 02:30:00,
2013-09-15 22:35:00,58.9,56.0,30.05,West,270,0.0,0.0,90,0.00,,,0.00,VWS V14.01,2013-09-16 02:35:00,
2013-09-15 22:40:00,58.7,55.8,30.05,West,270,0.0,0.0,90,0.00,,,0.00,VWS V14.01,2013-09-16 02:40:00,
2013-09-15 22:45:00,58.6,55.7,30.05,West,270,0.0,0.0,90,0.00,,,0.00,VWS V14.01,2013-09-16 02:45:00,
2013-09-15 22:50:00,58.4,55.5,30.05,West,270,0.0,0.0,90,0.00,,,0.00,VWS V14.01,2013-09-16 02:50:00,
2013-09-15 22:55:00,58.4,55.8,30.05,West,270,0.0,0.0,91,0.00,,,0.00,VWS V14.01,2013-09-16 02:55:00,
2013-09-15 23:00:00,58.3,55.7,30.06,West,270,0.0,0.0,91,0.00,,,0.00,VWS V14.01,2013-09-16 03:00:00,
2013-09-15 23:05:00,58.3,55.7,30.06,West,270,0.0,0.0,91,0.00,,,0.00,VWS V14.01,2013-09-16 03:05:00,
2013-09-15 23:10:00,58.1,55.5,30.06,West,270,0.0,0.0,91,0.00,,,0.00,VWS V14.01,2013-09-16 03:10:00,
2013-09-15 23:15:00,58.0,55.4,30.05,West,270,0.0,0.0,91,0.00,,,0.00,VWS V14.01,2013-09-16 03:15:00,
2013-09-15 23:20:00,58.0,55.7,30.05,West,270,0.0,0.0,92,0.00,,,0.00,VWS V14.01,2013-09-16 03:20:00,
2013-09-15 23:25:00,58.0,55.7,30.05,West,270,0.0,0.0,92,0.00,,,0.00,VWS V14.01,2013-09-16 03:25:00,
2013-09-15 23:30:00,57.8,55.5,30.05,West,270,0.0,0.0,92,0.00,,,0.00,VWS V14.01,2013-09-16 03:30:00,
2013-09-15 23:35:00,57.6,55.3,30.05,West,270,0.0,0.0,92,0.00,,,0.00,VWS V14.01,2013-09-16 03:35:00,
2013-09-15 23:40:00,57.6,55.6,30.05,West,270,0.0,0.0,93,0.00,,,0.00,VWS V14.01,2013-09-16 03:40:00,
2013-09-15 23:45:00,57.6,55.6,30.05,West,270,0.0,0.0,93,0.00,,,0.00,VWS V14.01,2013-09-16 03:45:00,
2013-09-15 23:50:00,57.5,55.5,30.05,West,270,0.0,0.0,93,0.00,,,0.00,VWS V14.01,2013-09-16 03:50:00,
2013-09-15 23:55:00,57.5,55.5,30.05,West,270,0.0,0.0,93,0.00,,,0.00,VWS V14.01,2013-09-16 03:55:00,